Home   Weather   Saint John   Past weeks
Flag for Canada

Past Weather in Saint John, New Brunswick, Canada — Yesterday and Last 2 Weeks

Now
50 °F

Passing clouds.


Feels Like: 46 °F
Forecast: 58 / 50 °F
Wind: 9 mph from Southwest

Location: Saint John

Current Time: May 25, 2020 at 9:41:33 pm

Latest Report: May 25, 2020 at 9:00 pm


Visibility: 15 mi

Pressure: 30.25 "Hg

Humidity: 47%

Dew Point: 30 °F

Location of Saint JohnLocation

Past Weather in Saint John — Graph

°F

Saint John Temperature Yesterday

Maximum temperature yesterday: 61 °F (at 3:00 pm)
Minimum temperature yesterday: 32 °F (at 6:00 am)
Average temperature yesterday: 47 °F

High & Low Weather Summary for the Past Weeks

 TemperatureHumidityPressure
High82 °F (May 22, 2:00 pm)100% (May 11, 11:00 pm)30.49 "Hg (May 11, 11:00 pm)
Low28 °F (May 15, 3:00 am)20% (May 24, 5:00 pm)29.58 "Hg (May 12, 2:00 pm)
Average48 °F63%30.07 "Hg
* Reported May 10 8:00 pm — May 25 8:00 pm, Saint John. Weather by CustomWeather, © 2020

Note: Actual official high and low records may vary slightly from our data, if they occured in-between our weather recording intervals... More about our weather records

Saint John Weather History for the Previous 24 Hours

Scroll right to see more
 ConditionsComfort  
Time TempWeatherWind HumidityBarometerVisibility
8:00 pm
Mon, May 25
55 °FPassing clouds.12 mph38%30.25 "Hg15 mi
7:00 pm57 °FScattered clouds.15 mph39%30.26 "Hg15 mi
6:00 pm57 °FScattered clouds.16 mph55%30.27 "Hg15 mi
5:00 pm57 °FScattered clouds.17 mph51%30.28 "Hg15 mi
4:00 pm57 °FScattered clouds.15 mph48%30.29 "Hg15 mi
3:00 pm61 °FPartly sunny.17 mph39%30.29 "Hg15 mi
2:00 pm59 °FScattered clouds.16 mph39%30.31 "Hg15 mi
1:00 pm57 °FScattered clouds.16 mph41%30.32 "Hg15 mi
12:00 pm57 °FScattered clouds.15 mph44%30.32 "Hg15 mi
11:00 am55 °FPartly sunny.13 mph51%30.33 "Hg15 mi
10:00 am54 °FPartly sunny.12 mph54%30.34 "Hg15 mi
9:00 am50 °FPartly sunny.12 mph67%30.33 "Hg15 mi
8:00 am46 °FScattered clouds.12 mph76%30.33 "Hg15 mi
7:00 am36 °FPartly sunny.3 mph93%30.33 "Hg15 mi
6:00 am32 °FScattered clouds.No wind93%30.33 "Hg15 mi
5:00 am32 °FPassing clouds.No wind100%30.32 "Hg15 mi
4:00 am32 °FClear.No wind93%30.34 "Hg15 mi
3:00 am36 °FClear.2 mph87%30.33 "Hg15 mi
2:00 am37 °FClear.3 mph87%30.34 "Hg15 mi
1:00 am39 °FPassing clouds.3 mph81%30.34 "Hg15 mi
12:00 am41 °FPassing clouds.5 mph70%30.34 "Hg15 mi
11:00 pm
Sun, May 24
41 °FPassing clouds.6 mph70%30.35 "Hg15 mi
10:00 pm45 °FPassing clouds.8 mph57%30.34 "Hg15 mi
9:00 pm46 °FPassing clouds.9 mph46%30.32 "Hg15 mi
Weather by CustomWeather, © 2020

See weather overview

Advertising